Weather in Medulin

Croatia     44°49′14″N   13°56′04″E
temp.,
°C
wind,
m/s
gust,
m/s
humid.,
%
clouds,
%
prec.,
mm/h
press.,
hPa
HPBL,
m
25 june, sat
sat2523:00+24s23810 0.0 101036
02:00+24e2282100 0.0 101114
05:00+24w4673100 0.0 1011172
08:00+23wnw347599 0.0 1013225
11:00+23w3374100 0.0 1014247
14:00+24s22691 0.0 1014200
17:00+25sse33640 0.0 1013362
20:00+24s45740 0.0 1013101
26 june, sun
sun2623:00+24se45790 0.0 1014124
02:00+23ene45790 0.0 1014138
05:00+23ene55750 0.0 1014186
08:00+23e45750 0.0 1015178
11:00+24ese33790 0.0 1016172
14:00+24ese44790 0.0 1015203
17:00+24ese55785 0.0 1014161
20:00+24ese33755 0.0 101452
27 june, mon
mon2723:00+24ene33721 0.0 101517
02:00+24ene44720 0.0 101564
05:00+24ene56730 0.0 1014105
08:00+24e44690 0.0 101569
11:00+24ese44690 0.0 101662
14:00+25ese44751 0.0 101573
17:00+25e56753 0.0 1014131
20:00+25e336920 0.0 101332
28 june, tue
tue2823:00+25e55710 0.0 101444
02:00+24e57774 0.0 101386
05:00+24ene34754 0.0 101349
08:00+24e33701 0.0 101426
11:00+25se11695 0.0 101520
14:00+27ssw2258100 0.0 101591
17:00+27s226253 0.0 101439
20:00+26wnw10137289 0.0 1014253
29 june, wed
wed2923:00+24wnw787551 0.4 101382
02:00+24nnw5678100 0.8 1012104
05:00+24nw678499 0.0 1011197
08:00+24ne34871 0.0 1012166
11:00+24se24850 0.0 1012240
14:00+24w34830 0.0 1012226
17:00+25w227729 0.0 101174
20:00+25ssw11790 0.0 101011